This demonstration page uses our WeatherBlox Daily Observations layout. Learn more.

Left ArrowRight Arrow

39.08367, -84.50855

Hourly Observations for July 6, 2022

Temp ( °F °C ) Dew Point ( °F °C ) Humidity (%) Winds ( mph kmh ) Pressure ( in mb ) Visibility ( mi km ) Precip ( " mm )
12:53 am 00:53 Clear 78 25.6 75 23.9 90 90 Calm 29.89 1012 10 16 0.00 0.00
1:53 am 01:53 Clear 78 25.6 75 23.9 90 90 Calm 29.90 1013 10 16 0.00 0.00
2:53 am 02:53 Clear 76 24.4 75 23.9 97 97 Calm 29.90 1012 10 16 0.00 0.00
3:53 am 03:53 Clear 76 24.4 74 23.3 94 94 Calm 29.91 1013 10 16 0.00 0.00
4:53 am 04:53 Clear 74 23.3 74 23.3 100 100 SW 5 7 29.89 1012 9 14 0.00 0.00
5:53 am 05:53 Partly Cloudy 74 23.3 73 22.8 97 97 SW 5 7 29.89 1012 9 14 0.00 0.00
6:53 am 06:53 Partly Cloudy with Nearby Thunderstorms 77 25 74 23.3 90 90 Calm 29.92 1013 9 14 0.00 0.00
7:53 am 07:53 Cloudy with Nearby Thunderstorms 78 25.6 75 23.9 90 90 E 6 9 29.94 1014 9 14 0.00 0.00
8:01 am 08:01 Mostly Cloudy with Nearby Thunderstorms 78 25.6 74 23.3 87 87 E 5 7 29.94 1014 10 16 0.00 0.00
8:53 am 08:53 Sunny 79 26.1 74 23.3 85 85 VRB 5 7 29.94 1014 10 16 0.00 0.00
9:53 am 09:53 Sunny 80 26.7 74 23.3 82 82 SSE 7 11 29.93 1014 9 14 0.00 0.00
10:53 am 10:53 Partly Cloudy 82 27.8 75 23.9 79 79 S 13 20 29.93 1014 10 16 0.00 0.00
11:53 am 11:53 Sunny 84 28.9 76 24.4 77 77 SSE 9 15 29.91 1013 10 16 0.00 0.00
12:53 pm 12:53 Sunny 88 31.1 78 25.6 73 73 S 10 17 29.89 1012 10 16 0.00 0.00
1:53 pm 13:53 Partly Cloudy 92 33.3 79 26.1 66 66 S 9 15 29.85 1011 10 16 0.00 0.00
2:37 pm 14:37 Cloudy with Nearby Thunderstorms 89 31.7 78 25.6 70 70 SSW 12 19 29.82 1010 9 14 0.00 0.00
2:50 pm 14:50 Mostly Cloudy with Thunderstorms 84 29 73 23 70 70 W 43 69 29.87 1012 2 3 0.00 0.00
2:53 pm 14:53 Mostly Cloudy with Thunderstorms 78 25.6 72 22.2 82 82 W 38 61 29.89 1012 2 3 0.08 2.03
3:00 pm 15:00 Cloudy with Strong Thunderstorms 74 23.3 71 21.7 91 91 undefined N/A 29.92 1013 2 3 0.12 3.05
3:16 pm 15:16 Cloudy with Thunderstorms 74 23.3 71 21.7 91 91 WSW 14 22 29.91 1013 3 5 0.12 3.05
3:53 pm 15:53 Partly Cloudy 73 22.8 72 22.2 96 96 SE 8 13 29.94 1014 10 16 0.12 3.05
4:53 pm 16:53 Partly Cloudy 73 22.8 72 22.2 96 96 VRB 5 7 29.92 1013 10 16 0.00 0.00
5:53 pm 17:53 Mostly Sunny 74 23.3 73 22.8 97 97 SSW 3 6 29.90 1013 10 16 0.00 0.00
6:53 pm 18:53 Sunny 75 23.9 74 23.3 96 96 SSW 3 6 29.90 1012 10 16 0.00 0.00
7:53 pm 19:53 Sunny 75 23.9 74 23.3 96 96 SSW 5 7 29.91 1013 10 16 0.00 0.00
8:49 pm 20:49 Partly Cloudy with Nearby Thunderstorms 75 24 73 23 94 94 VRB 5 7 29.92 1013 10 16 0.00 0.00
8:53 pm 20:53 Partly Cloudy with Nearby Thunderstorms 76 24.4 74 23.3 94 94 VRB 5 7 29.93 1014 10 16 0.00 0.00
9:04 pm 21:04 Mostly Cloudy 76 24.4 74 23.3 94 94 Calm 29.93 1014 8 13 0.00 0.00
9:53 pm 21:53 Mostly Cloudy 76 24.4 74 23.3 94 94 Calm 29.94 1014 8 13 0.00 0.00
10:53 pm 22:53 Partly Cloudy 74 23.3 74 23.3 100 100 Calm 29.96 1014 8 13 0.00 0.00
11:53 pm 23:53 undefined N/A N/A N/A undefined N/A N/A N/A 0.00 0.00

Powered by AerisWeather